Troy, MI

4:10 AM EST on January 20, 2018 (GMT -0500)
Troy

Weather History for KVLL - January, 2018

Change the Weather History Date:

Saturday, January 13, 2018

  Actual Average (KDET) Record (KDET)
Temperature  
Mean Temperature 14 °F -  
Max Temperature 18 °F 30 °F 61 °F (1950)
Min Temperature 10 °F 18 °F 0 °F (1999)
Degree Days  
Heating Degree Days 51    
Moisture  
Dew Point 4 °F    
Average Humidity 65    
Maximum Humidity 86    
Minimum Humidity 47    
Precipitation  
Precipitation 0.00 in - - ()
Sea Level Pressure  
Sea Level Pressure 30.43 in    
Wind  
Wind Speed 12 mph (NW)    
Max Wind Speed 22 mph    
Max Gust Speed 31 mph    
Visibility 10 miles    
Events      
Averages and records for this station are not official NWS values.
T = Trace of Precipitation, MM = Missing Value Source: NWS Daily Summary

Daily Weather History Graph

Daily Weather History Graph

Search for Another Location

Airport or City:

Trip Planner

Search our weather history database for the weather conditions in past years. The results will help you decide how hot, cold, wet, or windy it might be!

Date:

Astronomy

Jan. 13, 2018 Rise Set
Actual Time 8:00 AM EST 5:22 PM EST
Civil Twilight 7:29 AM EST 5:53 PM EST
Nautical Twilight 6:54 AM EST 6:28 PM EST
Astronomical Twilight 6:20 AM EST 7:02 PM EST
Moon 5:00 AM EST (1/13) 2:58 PM EST (1/13)
Length of Visible Light 10h 24m
Length of Day
9h 21m
Waning Crescent, 10% of the Moon is Illuminated
Jan 13
Waning Crescent
Jan 16
New
Jan 24
First Quarter
Jan 31
Full
Feb 7
Last Quarter

Hourly Weather History & Observations

Time (EST) Temp. Windchill Dew Point Humidity Pressure Visibility Wind Dir Wind Speed Gust Speed Precip Events Conditions
12:15 AM 14.0 °F -4.3 °F 5.9 °F 70% 30.16 in 10.0 mi NNW 21.9 mph 31.1 mph N/A   Scattered Clouds
12:35 AM 13.8 °F -2.2 °F 5.9 °F 71% 30.18 in 10.0 mi NNW 16.1 mph 27.6 mph N/A   Scattered Clouds
12:55 AM 13.6 °F -1.9 °F 5.9 °F 71% 30.18 in 10.0 mi NNW 15.0 mph 25.3 mph N/A   Mostly Cloudy
1:15 AM 13.6 °F -0.7 °F 5.9 °F 71% 30.23 in 10.0 mi NW 12.7 mph 23.0 mph N/A   Overcast
1:35 AM 13.6 °F -1.3 °F 5.9 °F 71% 30.23 in 10.0 mi NNW 13.8 mph 25.3 mph N/A   Overcast
1:55 AM 13.6 °F -3.0 °F 5.9 °F 71% 30.22 in 10.0 mi NNW 17.3 mph 25.3 mph N/A   Overcast
2:15 AM 13.6 °F -3.9 °F 5.7 °F 71% 30.23 in 10.0 mi NW 19.6 mph 24.2 mph N/A   Mostly Cloudy
2:35 AM 13.5 °F -0.9 °F 5.7 °F 71% 30.23 in 10.0 mi NW 12.7 mph 27.6 mph N/A   Mostly Cloudy
2:55 AM 13.5 °F -3.2 °F 5.4 °F 70% 30.24 in 10.0 mi NNW 17.3 mph 24.2 mph N/A   Mostly Cloudy
3:15 AM 13.5 °F -2.1 °F 5.4 °F 70% 30.25 in 10.0 mi NW 15.0 mph 25.3 mph N/A   Mostly Cloudy
3:35 AM 13.1 °F -1.4 °F 5.0 °F 70% 30.24 in 10.0 mi NW 12.7 mph 24.2 mph N/A   Scattered Clouds
3:55 AM 13.1 °F -1.4 °F 5.0 °F 70% 30.25 in 10.0 mi NW 12.7 mph 21.9 mph N/A   Scattered Clouds
4:15 AM 13.1 °F -4.2 °F 4.8 °F 70% 30.27 in 10.0 mi NW 18.4 mph 24.2 mph N/A   Mostly Cloudy
4:35 AM 13.1 °F -2.6 °F 4.8 °F 70% 30.28 in 10.0 mi NW 15.0 mph 21.9 mph N/A   Mostly Cloudy
4:55 AM 13.1 °F -2.0 °F 4.5 °F 68% 30.28 in 10.0 mi NNW 13.8 mph 23.0 mph N/A   Mostly Cloudy
5:15 AM 13.1 °F -3.7 °F 4.1 °F 67% 30.29 in 10.0 mi NW 17.3 mph 24.2 mph N/A   Overcast
5:35 AM 13.3 °F -1.1 °F 3.9 °F 66% 30.30 in 10.0 mi NW 12.7 mph 21.9 mph N/A   Overcast
5:55 AM 13.3 °F -1.8 °F 3.9 °F 66% 30.31 in 10.0 mi NW 13.8 mph 20.7 mph N/A   Overcast
6:15 AM 13.3 °F 0.3 °F 3.9 °F 66% 30.32 in 10.0 mi NW 10.4 mph 16.1 mph N/A   Overcast
6:35 AM 12.9 °F -3.4 °F 3.2 °F 65% 30.33 in 10.0 mi NW 16.1 mph 19.6 mph N/A   Scattered Clouds
6:55 AM 12.6 °F -3.3 °F 3.0 °F 66% 30.34 in 10.0 mi NW 15.0 mph 21.9 mph N/A   Scattered Clouds
7:15 AM 12.7 °F -1.1 °F 2.3 °F 63% 30.36 in 10.0 mi NW 11.5 mph 23.0 mph N/A   Mostly Cloudy
7:35 AM 12.0 °F -3.4 °F 2.1 °F 65% 30.37 in 10.0 mi NW 13.8 mph 17.3 mph N/A   Mostly Cloudy
7:55 AM 11.7 °F -3.8 °F 2.1 °F 66% 30.38 in 10.0 mi NW 13.8 mph 20.7 mph N/A   Scattered Clouds
8:15 AM 11.3 °F -2.9 °F 2.7 °F 68% 30.39 in 10.0 mi WNW 11.5 mph 19.6 mph N/A   Scattered Clouds
8:35 AM 11.3 °F -3.6 °F 2.8 °F 69% 30.40 in 10.0 mi NW 12.7 mph 19.6 mph N/A   Clear
8:55 AM 11.3 °F -2.2 °F 2.5 °F 68% 30.41 in 10.0 mi NW 10.4 mph 16.1 mph N/A   Clear
9:15 AM 12.0 °F -0.4 °F 3.0 °F 67% 30.42 in 10.0 mi NW 9.2 mph 16.1 mph N/A   Clear
9:35 AM 12.4 °F 0.0 °F 3.2 °F 67% 30.42 in 10.0 mi NNW 9.2 mph 17.3 mph N/A   Clear
9:55 AM 12.9 °F 1.6 °F 3.4 °F 66% 30.43 in 10.0 mi NNW 8.1 mph 17.3 mph N/A   Clear
10:15 AM 13.6 °F 0.0 °F 3.9 °F 65% 30.44 in 10.0 mi NNW 11.5 mph 19.6 mph N/A   Clear
10:35 AM 14.5 °F -0.2 °F 2.7 °F 59% 30.45 in 10.0 mi NNW 13.8 mph 21.9 mph N/A   Clear
10:55 AM 15.6 °F 4.0 °F 3.2 °F 58% 30.45 in 10.0 mi NNW 9.2 mph - N/A   Clear
11:15 AM 15.6 °F 3.2 °F 1.4 °F 54% 30.46 in 10.0 mi North 10.4 mph 21.9 mph N/A   Clear
11:35 AM 16.2 °F 1.3 °F 2.3 °F 54% 30.46 in 10.0 mi NW 15.0 mph 18.4 mph N/A   Clear
11:55 AM 16.5 °F 2.4 °F 2.5 °F 54% 30.45 in 10.0 mi NNW 13.8 mph 17.3 mph N/A   Scattered Clouds
12:15 PM 16.7 °F 3.2 °F 2.5 °F 54% 30.45 in 10.0 mi North 12.7 mph 17.3 mph N/A   Scattered Clouds
12:35 PM 16.7 °F 3.8 °F 2.5 °F 54% 30.45 in 10.0 mi North 11.5 mph 20.7 mph N/A   Scattered Clouds
12:55 PM 17.1 °F 6.6 °F 2.3 °F 52% 30.45 in 10.0 mi North 8.1 mph 18.4 mph N/A   Scattered Clouds
1:15 PM 17.2 °F 6.0 °F 2.8 °F 53% 30.45 in 10.0 mi NW 9.2 mph 16.1 mph N/A   Scattered Clouds
1:35 PM 18.3 °F 5.9 °F 2.5 °F 50% 30.45 in 10.0 mi NW 11.5 mph 19.6 mph N/A   Mostly Cloudy
1:55 PM 18.0 °F 7.7 °F 3.0 °F 52% 30.46 in 10.0 mi NNW 8.1 mph 11.5 mph N/A   Overcast
2:15 PM 18.1 °F 6.3 °F 3.0 °F 52% 30.46 in 10.0 mi NNW 10.4 mph - N/A   Overcast
2:35 PM 18.1 °F 7.1 °F 2.3 °F 50% 30.47 in 10.0 mi North 9.2 mph 16.1 mph N/A   Overcast
2:55 PM 17.8 °F 6.6 °F 2.1 °F 50% 30.48 in 10.0 mi WNW 9.2 mph - N/A   Mostly Cloudy
3:15 PM 17.4 °F 8.0 °F 2.3 °F 52% 30.49 in 10.0 mi NW 6.9 mph - N/A   Scattered Clouds
3:35 PM 17.8 °F 6.6 °F 1.2 °F 48% 30.50 in 10.0 mi NW 9.2 mph - N/A   Scattered Clouds
3:55 PM 17.4 °F 7.1 °F 0.9 °F 48% 30.50 in 10.0 mi NW 8.1 mph - N/A   Mostly Cloudy
4:15 PM 16.7 °F 8.3 °F -0.4 °F 47% 30.51 in 10.0 mi NW 5.8 mph - N/A   Scattered Clouds
4:35 PM 16.5 °F 6.0 °F 1.2 °F 51% 30.52 in 10.0 mi NW 8.1 mph - N/A   Clear
4:55 PM 16.2 °F 7.6 °F 2.3 °F 54% 30.52 in 10.0 mi WNW 5.8 mph - N/A   Clear
5:15 PM 15.8 °F 6.1 °F 3.0 °F 57% 30.53 in 10.0 mi WNW 6.9 mph - N/A   Clear
5:35 PM 15.6 °F 10.0 °F 3.6 °F 59% 30.53 in 10.0 mi West 3.5 mph - N/A   Clear
5:55 PM 15.3 °F 7.9 °F 3.9 °F 61% 30.54 in 10.0 mi West 4.6 mph - N/A   Clear
6:15 PM 14.9 °F 9.2 °F 4.1 °F 62% 30.54 in 10.0 mi West 3.5 mph - N/A   Clear
6:35 PM 14.9 °F - 4.8 °F 64% 30.55 in 10.0 mi Calm Calm - N/A   Clear
6:55 PM 14.5 °F - 5.0 °F 66% 30.55 in 10.0 mi Calm Calm - N/A   Clear
7:15 PM 14.5 °F 7.1 °F 5.0 °F 66% 30.56 in 10.0 mi WNW 4.6 mph - N/A   Clear
7:35 PM 14.0 °F - 5.2 °F 68% 30.56 in 10.0 mi Calm Calm - N/A   Clear
7:55 PM 14.0 °F - 5.4 °F 69% 30.57 in 10.0 mi Calm Calm - N/A   Clear
8:15 PM 13.5 °F - 5.9 °F 72% 30.58 in 10.0 mi Calm Calm - N/A   Scattered Clouds
8:35 PM 13.5 °F - 6.1 °F 72% 30.58 in 10.0 mi Calm Calm - N/A   Clear
8:55 PM 12.9 °F - 5.7 °F 73% 30.58 in 10.0 mi Calm Calm - N/A   Clear
9:15 PM 11.8 °F - 5.4 °F 75% 30.58 in 10.0 mi Calm Calm - N/A   Clear
9:35 PM 12.0 °F - 6.1 °F 77% 30.59 in 10.0 mi Calm Calm - N/A   Clear
9:55 PM 11.7 °F - 6.6 °F 80% 30.59 in 10.0 mi Calm Calm - N/A   Clear
10:15 PM 11.7 °F - 6.4 °F 80% 30.59 in 10.0 mi Calm Calm - N/A   Clear
10:35 PM 11.3 °F - 6.4 °F 81% 30.60 in 10.0 mi Calm Calm - N/A   Clear
10:55 PM 10.9 °F - 7.0 °F 84% 30.60 in 10.0 mi Calm Calm - N/A   Clear
11:15 PM 10.4 °F - 7.0 °F 86% 30.60 in 10.0 mi Calm Calm - N/A   Clear
11:35 PM 11.5 °F - 7.5 °F 84% 30.60 in 10.0 mi Calm Calm - N/A   Clear
11:55 PM 11.3 °F - 6.8 °F 82% 30.61 in 10.0 mi Calm Calm - N/A   Clear